When you browse on this site, cookies collect data to enhance your experience and personalize the content and advertising you see.
Visit our Privacy Policy to learn more. By continuing to use the site, you agree to this use of cookies and data.
  • In Italy
  • List of Countries
  • For 7 days
  • Water Temperature
  • Satellite Maps
  • Weather Map
  • Weather Widgets
  • user-avatar
    Login

    Hourly Weather Namyur

    Today, 19 April, Friday

    Time Temperature Precipitation Wind Pressure Humidity
    00:00 +12°C° 0 mm 2 mps 758 mmHg 78%
    01:00 +12°C° 0 mm 2 mps 758 mmHg 77%
    02:00 +10°C° 0 mm 2 mps 758 mmHg 77%
    03:00 +10°C° 0 mm 2 mps 758 mmHg 76%
    04:00 +10°C° 0 mm 2 mps 758 mmHg 76%
    05:00 +10°C° 0 mm 2 mps 758 mmHg 77%
    06:00 +12°C° 0 mm 2 mps 759 mmHg 77%
    07:00 +13°C° 0 mm 3 mps 759 mmHg 72%
    08:00 +16°C° 0 mm 3 mps 759 mmHg 66%
    09:00 +19°C° 0 mm 4 mps 759 mmHg 61%
    10:00 +20°C° 0 mm 4 mps 759 mmHg 57%
    11:00 +21°C° 0 mm 4 mps 759 mmHg 53%
    12:00 +22°C° 0 mm 4 mps 759 mmHg 48%
    13:00 +22°C° 0 mm 4 mps 759 mmHg 49%
    14:00 +23°C° 0 mm 4 mps 759 mmHg 49%
    15:00 +23°C° 0 mm 4 mps 759 mmHg 50%
    16:00 +21°C° 0.1 mm 3 mps 759 mmHg 56%
    17:00 +20°C° 0.1 mm 3 mps 759 mmHg 63%
    18:00 +18°C° 0.1 mm 2 mps 759 mmHg 70%
    19:00 +17°C° 0 mm 2 mps 759 mmHg 71%
    20:00 +15°C° 0 mm 2 mps 760 mmHg 73%
    21:00 +14°C° 0 mm 2 mps 760 mmHg 74%
    22:00 +14°C° 0 mm 2 mps 760 mmHg 73%
    23:00 +13°C° 0 mm 2 mps 760 mmHg 73%

    Tomorrow, 20 April, Saturday

    Time Temperature Precipitation Wind Pressure Humidity
    00:00 +12°C° 0 mm 2 mps 760 mmHg 72%
    01:00 +12°C° 0 mm 2 mps 760 mmHg 71%
    02:00 +10°C° 0 mm 2 mps 760 mmHg 71%
    03:00 +10°C° 0 mm 2 mps 760 mmHg 71%
    04:00 +10°C° 0 mm 2 mps 760 mmHg 73%
    05:00 +12°C° 0 mm 2 mps 760 mmHg 75%
    06:00 +12°C° 0 mm 2 mps 760 mmHg 76%
    07:00 +14°C° 0 mm 2 mps 760 mmHg 72%
    08:00 +17°C° 0 mm 3 mps 760 mmHg 68%
    09:00 +19°C° 0 mm 3 mps 760 mmHg 64%
    10:00 +20°C° 0 mm 4 mps 760 mmHg 59%
    11:00 +21°C° 0 mm 4 mps 760 mmHg 54%
    12:00 +23°C° 0 mm 4 mps 760 mmHg 50%
    13:00 +23°C° 0 mm 4 mps 759 mmHg 50%
    14:00 +23°C° 0 mm 4 mps 759 mmHg 51%
    15:00 +23°C° 0 mm 4 mps 758 mmHg 51%
    16:00 +21°C° 0 mm 4 mps 758 mmHg 56%
    17:00 +20°C° 0 mm 3 mps 758 mmHg 62%
    18:00 +19°C° 0 mm 3 mps 758 mmHg 67%
    19:00 +17°C° 0 mm 2 mps 758 mmHg 68%
    20:00 +16°C° 0 mm 2 mps 758 mmHg 70%
    21:00 +14°C° 0 mm 2 mps 758 mmHg 72%
    22:00 +13°C° 0 mm 2 mps 758 mmHg 72%
    23:00 +13°C° 0 mm 2 mps 758 mmHg 73%

    Day after tomorrow, 21 April, Sunday

    Time Temperature Precipitation Wind Pressure Humidity
    00:00 +12°C° 0 mm 2 mps 758 mmHg 73%
    01:00 +12°C° 0 mm 2 mps 758 mmHg 75%
    02:00 +12°C° 0 mm 2 mps 757 mmHg 77%
    03:00 +11°C° 0 mm 1 mps 757 mmHg 79%
    04:00 +12°C° 0 mm 1 mps 757 mmHg 79%
    05:00 +12°C° 0 mm 1 mps 756 mmHg 79%
    06:00 +13°C° 0 mm 1 mps 756 mmHg 80%
    07:00 +15°C° 0 mm 2 mps 756 mmHg 73%
    08:00 +17°C° 0 mm 2 mps 756 mmHg 66%
    09:00 +19°C° 0 mm 2 mps 756 mmHg 60%
    10:00 +20°C° 0 mm 3 mps 755 mmHg 56%
    11:00 +21°C° 0 mm 3 mps 755 mmHg 52%
    12:00 +22°C° 0 mm 3 mps 754 mmHg 49%
    13:00 +22°C° 0 mm 3 mps 754 mmHg 49%
    14:00 +22°C° 0 mm 3 mps 753 mmHg 50%
    15:00 +22°C° 0 mm 3 mps 752 mmHg 50%
    16:00 +21°C° 0 mm 3 mps 752 mmHg 56%
    17:00 +20°C° 0 mm 3 mps 752 mmHg 62%
    18:00 +18°C° 0 mm 3 mps 751 mmHg 68%
    19:00 +17°C° 0 mm 2 mps 751 mmHg 69%
    20:00 +15°C° 0 mm 2 mps 751 mmHg 71%
    21:00 +14°C° 0 mm 2 mps 751 mmHg 72%
    22:00 +13°C° 0 mm 2 mps 751 mmHg 72%
    23:00 +13°C° 0 mm 2 mps 751 mmHg 72%

    22 April, Monday

    Time Temperature Precipitation Wind Pressure Humidity
    00:00 +12°C° 0 mm 2 mps 750 mmHg 72%
    01:00 +12°C° 0 mm 2 mps 750 mmHg 72%
    02:00 +10°C° 0 mm 2 mps 749 mmHg 72%
    03:00 +10°C° 0 mm 2 mps 749 mmHg 72%
    04:00 +10°C° 0 mm 2 mps 748 mmHg 73%
    05:00 +12°C° 0 mm 2 mps 748 mmHg 73%
    06:00 +12°C° 0 mm 2 mps 748 mmHg 74%
    07:00 +14°C° 0 mm 3 mps 747 mmHg 68%
    08:00 +17°C° 0 mm 3 mps 747 mmHg 63%
    09:00 +19°C° 0 mm 4 mps 747 mmHg 57%
    10:00 +20°C° 0 mm 4 mps 746 mmHg 54%
    11:00 +21°C° 0 mm 4 mps 745 mmHg 50%
    12:00 +22°C° 0 mm 4 mps 745 mmHg 47%
    13:00 +22°C° 0 mm 4 mps 744 mmHg 48%
    14:00 +22°C° 0 mm 4 mps 744 mmHg 48%
    15:00 +22°C° 0 mm 4 mps 743 mmHg 49%
    16:00 +21°C° 0 mm 4 mps 742 mmHg 55%
    17:00 +19°C° 0 mm 3 mps 742 mmHg 62%
    18:00 +18°C° 0 mm 3 mps 742 mmHg 68%
    19:00 +16°C° 0 mm 3 mps 742 mmHg 69%
    20:00 +14°C° 0 mm 3 mps 742 mmHg 70%
    21:00 +13°C° 0 mm 3 mps 742 mmHg 71%
    22:00 +12°C° 0 mm 3 mps 741 mmHg 74%
    23:00 +11°C° 0 mm 3 mps 741 mmHg 77%

    23 April, Tuesday

    Time Temperature Precipitation Wind Pressure Humidity
    00:00 +11°C° 0 mm 3 mps 741 mmHg 80%
    01:00 +10°C° 0 mm 3 mps 741 mmHg 81%
    02:00 +9°C° 0 mm 3 mps 740 mmHg 82%
    03:00 +9°C° 0 mm 2 mps 740 mmHg 82%
    04:00 +9°C° 0 mm 2 mps 740 mmHg 81%
    05:00 +9°C° 0 mm 2 mps 739 mmHg 81%
    06:00 +9°C° 0 mm 2 mps 739 mmHg 80%
    07:00 +12°C° 0 mm 2 mps 739 mmHg 74%
    08:00 +15°C° 0 mm 2 mps 739 mmHg 69%
    09:00 +17°C° 0 mm 2 mps 739 mmHg 64%
    10:00 +18°C° 0 mm 2 mps 739 mmHg 61%
    11:00 +20°C° 0 mm 2 mps 739 mmHg 57%
    12:00 +22°C° 0 mm 1 mps 739 mmHg 53%
    13:00 +22°C° 0 mm 1 mps 739 mmHg 53%
    14:00 +23°C° 0 mm 1 mps 739 mmHg 52%
    15:00 +21°C° 0 mm 0 mps 739 mmHg 51%
    16:00 +22°C° 0 mm 1 mps 739 mmHg 57%
    17:00 +21°C° 0 mm 1 mps 739 mmHg 62%
    18:00 +20°C° 0 mm 1 mps 739 mmHg 67%
    19:00 +19°C° 0 mm 1 mps 739 mmHg 72%
    20:00 +17°C° 0 mm 2 mps 740 mmHg 76%
    21:00 +16°C° 0 mm 2 mps 740 mmHg 81%
    22:00 +15°C° 0 mm 2 mps 740 mmHg 84%
    23:00 +15°C° 0 mm 2 mps 740 mmHg 87%

    24 April, Wednesday

    Time Temperature Precipitation Wind Pressure Humidity
    00:00 +14°C° 0 mm 2 mps 740 mmHg 90%
    01:00 +13°C° 0 mm 3 mps 741 mmHg 90%
    02:00 +13°C° 0 mm 3 mps 741 mmHg 89%
    03:00 +13°C° 0 mm 3 mps 741 mmHg 89%
    04:00 +13°C° 0 mm 4 mps 741 mmHg 88%
    05:00 +13°C° 0 mm 5 mps 741 mmHg 88%
    06:00 +13°C° 0 mm 6 mps 742 mmHg 87%
    07:00 +15°C° 0 mm 6 mps 742 mmHg 80%
    08:00 +17°C° 0 mm 7 mps 742 mmHg 73%
    09:00 +18°C° 0 mm 8 mps 743 mmHg 66%
    10:00 +20°C° 0 mm 8 mps 743 mmHg 64%
    11:00 +20°C° 0 mm 8 mps 743 mmHg 62%
    12:00 +21°C° 0 mm 8 mps 743 mmHg 61%
    13:00 +21°C° 0.4 mm 8 mps 743 mmHg 63%
    14:00 +20°C° 0.4 mm 7 mps 743 mmHg 66%
    15:00 +20°C° 0.4 mm 6 mps 743 mmHg 69%
    16:00 +19°C° 0.3 mm 6 mps 744 mmHg 72%
    17:00 +17°C° 0.3 mm 5 mps 744 mmHg 75%
    18:00 +17°C° 0.3 mm 4 mps 744 mmHg 78%
    19:00 +17°C° 0.1 mm 4 mps 744 mmHg 81%
    20:00 +15°C° 0.1 mm 4 mps 744 mmHg 83%
    21:00 +14°C° 0.1 mm 4 mps 744 mmHg 86%
    22:00 +14°C° 0.4 mm 4 mps 744 mmHg 87%
    23:00 +14°C° 0.4 mm 5 mps 744 mmHg 88%
    Show more